Location: Unspecified
(0.0000°N, 0.0000°E)
Time: 10:23:03
(UTC+00:00)

Explorer 11/Cluster Stage 4 - Pass Details

Date: 08 October 2020
Orbit: 467 x 1258 km, 28.8° (Epoch: 28 October)

Event Time Altitude Azimuth Distance (km) Brightness Sun altitude
Rises 13:56:21 0° 216° (SW) 3,689 10.4 57.2°
Reaches altitude 10° 14:00:23 10° 195° (SSW) 2,554 9.6 56.2°
Maximum altitude 14:03:55 16° 159° (SSE) 2,005 8.8 55.4°
Drops below altitude 10° 14:07:04 10° 123° (ESE) 2,221 8.8 54.6°
Sets 14:10:11 0° 100° (E) 2,978 9.2 53.8°
